Simultaneous Nadir Overpasses (SNOs) Predictions

Prediction of SNOs between TERRA and METOP-C Satellite Orbit:

Table of predicted SNOs for the next 14.0 days since TLE Epoch: 8/31/2024
Index Date (TERRA) Time (TERRA) Lat,Lon (TERRA) SZA (TERRA ) Date (METOP-C) Time (METOP-C) Lat,Lon (METOP-C) SZA (METOP-C ) Distance(km) Time Diff (sec)
1 08/31/2024 21:36:56 73.39,-150.53 65.20 08/31/2024 21:35:56 73.39,-150.51 65.21 0.72 60
2 08/31/2024 22:25:57 -74.46, 19.46 113.79 08/31/2024 22:26:16 -74.45, 19.38 113.80 2.74 19
3 09/03/2024 12:07:03 73.56, -7.77 66.30 09/03/2024 12:06:15 73.57, -7.70 66.32 2.36 48
4 09/03/2024 12:56:06 -74.53, 162.04 112.77 09/03/2024 12:56:37 -74.52, 161.99 112.78 1.89 31
5 09/06/2024 02:37:19 73.18, 133.89 66.91 09/06/2024 02:36:45 73.17, 133.82 66.91 2.55 34
6 09/06/2024 03:26:14 -74.58, -55.41 111.76 09/06/2024 03:26:58 -74.57, -55.46 111.77 1.67 44
7 09/08/2024 17:07:24 73.26, -83.52 67.96 09/08/2024 17:07:04 73.26, -83.58 67.95 2.26 20
8 09/08/2024 17:56:20 -74.62, 87.10 110.75 09/08/2024 17:57:18 -74.61, 87.04 110.76 2.08 58
9 09/11/2024 07:37:29 73.33, 59.05 69.00 09/11/2024 07:37:24 73.32, 58.97 68.99 2.66 5
10 09/11/2024 08:26:20 -74.94,-129.66 109.45 09/11/2024 08:27:32 -74.96,-129.58 109.44 2.93 72
11 09/13/2024 21:18:42 -71.88, 31.15 111.37 09/13/2024 21:17:33 -71.88, 31.13 111.36 1.08 69
12 09/13/2024 22:07:25 73.80,-157.54 70.43 09/13/2024 22:07:35 73.81,-157.48 70.44 2.16 10



Historial Predications of SNOs between TERRA and METOP-C
